Location: Unspecified
(50.7693°N, 0.0000°E)
Time: 07:42:45
(UTC+00:00)

Transit 2A - Pass Details

Date: 22 August 2020
Orbit: 591 x 967 km, 66.7° (Epoch: 20 September)

Event Time Altitude Azimuth Distance (km) Brightness Sun altitude
Rises 02:38:02 0° 319° (NW) 3,661 9.6 -19.0°
Reaches altitude 10° 02:40:49 10° 312° (NW) 2,694 8.8 -18.8°
Maximum altitude 02:46:32 37° 247° (WSW) 1,395 6.9 -18.2°
Enters shadow 02:48:40 29° 207° (SSW) 1,612 7.1 -17.9°
